Location: Alfortville
(48.8058°N, 2.4204°E)
Time: 04:05:48
(UTC+00:00)

LilacSat-2 - Visible Passes

Search period start: 29 March 2023 00:00
Search period end: 08 April 2023 00:00
Orbit: 499 x 521 km, 97.5° (Epoch: 28 March)

Date Brightness Start Highest point End Pass type
(mag) Time Alt. Az. Time Alt. Az. Time Alt. Az.
30 Mar ? 05:00:09 10° NE 05:02:44 18° E 05:05:18 10° SE visible
31 Mar ? 04:44:30 10° ENE 04:45:58 12° E 04:47:25 10° ESE visible
06 Apr ? 04:39:22 10° E 04:39:49 10° E 04:40:16 10° E visible
